Content
SEND FEEDBACK

Daily
Averages
Monthly
Summary
United States of America

ST. LOUIS - SAINT LOUIS UNIVERSITY, MISSOURI


Home > North America > United States > Missouri
Elevation: 580 feet     Latitude: 38 38N     Longitude: 090 14W

WEATHER
 
SELECT A DAY
Number of Records: 188,449;   Date Range: 1/1/95 - 9/30/14
 
SHARE

PRINT THIS DATA

[ ← Previous Day ]
WEATHER ALMANAC - JANUARY 17, 2013
[ Next Day → ]
[ °C ]   °F
Weather ElementAverageHighLow
Temperature34.4 °F41 °F (2:53 pm)25 °F (11:53 pm)
Dewpoint23.8 °F28.9 °F (8:53 am)18 °F (7:53 pm)
Humidity66.4 %81 % (8:06 am)43 % (2:53 pm)
Barometer30.36 in30.52 in (9:53 pm)30.18 in (1:53 am)
Wind Speed8.3 mph16.1 mph (10:53 am)
Wind Gust19.6 mph (11:53 am)
Weather ElementAverage
Visibility10 mi
Wind DirectionSW (227.6 °)

Weather ElementTotal
Precipitation---
Heating Degree Days32 (Base 65)
Averaged from 25 records on January 17, 2013
WEATHER CONDITIONS BREAKOUT
WIND DIRECTION BREAKOUT
WEATHER BY HOUR - JANUARY 17, 2013
[ °C ]   °F
Local TimeTemperatureDewpointHumidityBarometerVisibilityWind DirectionWind SpeedGust SpeedPrecipitationEventsConditions
1:53 AM35.1 °F24.1 °F64 %30.18 in10.0 miCalmOvercast
2:53 AM35.1 °F24.1 °F64 %30.18 in10.0 miCalmOvercast
3:53 AM34.0 °F25.0 °F70 %30.20 in10.0 miCalmOvercast
4:53 AM35.1 °F25.0 °F67 %30.21 in10.0 miWNW (290°)4.6 mphOvercast
6:53 AM33.1 °F26.1 °F75 %30.25 in10.0 miNorth (350°)8.1 mphClear
7:53 AM34.0 °F28.0 °F79 %30.30 in10.0 miNorth (350°)12.7 mphPartly Cloudy
8:06 AM33.8 °F28.4 °F81 %30.30 in10.0 miNorth (350°)12.7 mphMostly Cloudy
8:53 AM35.1 °F28.9 °F78 %30.34 in10.0 miNorth (350°)13.8 mphScattered Clouds
9:23 AM35.6 °F28.4 °F75 %30.35 in10.0 miNorth (350°)13.8 mphMostly Cloudy
9:53 AM36.0 °F28.9 °F76 %30.36 in10.0 miNorth (360°)15.0 mphMostly Cloudy
10:53 AM36.0 °F28.0 °F73 %30.37 in10.0 miNorth (350°)16.1 mphOvercast
11:53 AM37.9 °F28.0 °F68 %30.38 in10.0 miNNW (340°)15.0 mph19.6 mphMostly Cloudy
12:22 PM39.2 °F26.6 °F61 %30.35 in10.0 miNorth (350°)13.8 mphScattered Clouds
12:53 PM39.0 °F26.1 °F60 %30.35 in10.0 miNorth (360°)11.5 mphClear
1:53 PM39.9 °F21.9 °F49 %30.35 in10.0 miNNW (340°)13.8 mphClear
2:53 PM41.0 °F19.9 °F43 %30.37 in10.0 miNNW (340°)13.8 mphClear
3:53 PM39.9 °F19.9 °F45 %30.39 in10.0 miNorth (10°)13.8 mphClear
4:53 PM37.0 °F21.9 °F54 %30.42 in10.0 miNNW (330°)9.2 mphClear
5:53 PM35.1 °F19.0 °F52 %30.45 in10.0 miNorth (350°)10.4 mphClear
6:53 PM33.1 °F19.0 °F56 %30.47 in10.0 miNorth (350°)6.9 mphClear
7:53 PM30.9 °F18.0 °F59 %30.48 in10.0 miCalmClear
8:53 PM28.0 °F19.9 °F72 %30.50 in10.0 miCalmClear
9:53 PM26.1 °F19.9 °F78 %30.52 in10.0 miCalmClear
10:53 PM26.1 °F21.0 °F81 %30.51 in10.0 miSouth (170°)3.5 mphClear
11:53 PM25.0 °F19.9 °F81 %30.51 in10.0 miCalmClear
Hourly data recorded from KCPS, located miles away from St. Louis - Saint Louis University, Missouri







STORIES FROM OUR PARTNERS